sat.trackr.live / text

‹ back to catalog

STARLINK-5796

NORAD 55916 · 2023-037C

PAYLOAD ACTIVE UNKNOWN

§ Identity

Operator
Country
US
Launch date
2023-03-17
Launch site
AFWTR
Launch vehicle
Mass (kg)
RCS (m²)

Purposes: comms

External: N2YO · Heavens-Above · Gunter

§ Orbital elements

Epoch: 2026-09-20T11:49:16.836672Z

Period
96.11 min
Inclination
70.0005°
Eccentricity
0.0002935
Mean motion
14.98329465 rev/d
Perigee alt
570.0 km
Apogee alt
574.1 km
Semi-major
6,950.2 km
B*
3.5580e-5
RAAN
173.4158°
Arg perigee
269.1868°
Mean anomaly
90.8954°
Rev number
19,266

§ Raw data

STARLINK-57961 55916U 23037C   26263.49255598  .00000332  00000+0  35580-4 0  99992 55916  70.0005 173.4158 0002935 269.1868  90.8954 14.98329465192668

JSON: /api/v1/satellites/55916 · /tle

For live sub-satellite position, see the globe view (requires WebGL).

§ Visibility from observer

Set your observer location to see the next 7 days of passes ≥ 10°. The values pass through the URL so the page stays shareable.

No JS? Fill the form by hand. The geolocation button needs JavaScript.